Location: Düngen
(52.0952°N, 10.0219°E)
Time: 18:38:09
(UTC+00:00)

Cosmos 1656 Rocket - Pass Details

Date: 11 March 2026
Orbit: 795 x 843 km, 71.1° (Epoch: 20 April)

Event Time Altitude Azimuth Distance (km) Brightness Sun altitude
Rises 19:09:28 0° 208° (SSW) 3,339 6.9 -17.8°
Reaches altitude 10° 19:11:53 10° 208° (SSW) 2,404 6.2 -18.2°
Maximum altitude 19:17:24 89° 124° (ESE) 816 3.5 -19.0°
Drops below altitude 10° 19:22:53 10° 31° (NNE) 2,390 5.9 -19.8°
Sets 19:25:17 0° 31° (NNE) 3,319 6.7 -20.1°
